Year,Month,Day,Hour,Minute,Value (Times are PST for temperature in C)
2015,04,19,00,00,8.10
2015,04,19,00,01,8.10
2015,04,19,00,02,8.10
2015,04,19,00,03,8.10
2015,04,19,00,04,8.10
2015,04,19,00,05,8.00
2015,04,19,00,06,8.00
2015,04,19,00,07,8.00
2015,04,19,00,08,8.00
2015,04,19,00,09,8.00
2015,04,19,00,10,8.00
2015,04,19,00,11,8.00
2015,04,19,00,12,8.00
2015,04,19,00,13,8.00
2015,04,19,00,14,7.90
2015,04,19,00,15,7.90
2015,04,19,00,16,7.90
2015,04,19,00,17,7.90
2015,04,19,00,18,7.90
2015,04,19,00,19,7.80
2015,04,19,00,20,7.80
2015,04,19,00,21,7.80
2015,04,19,00,22,7.80
2015,04,19,00,23,7.80
2015,04,19,00,24,7.70
2015,04,19,00,25,7.70
2015,04,19,00,26,7.70
2015,04,19,00,27,7.60
2015,04,19,00,28,7.70
2015,04,19,00,29,7.70
2015,04,19,00,30,7.70
2015,04,19,00,31,7.70
2015,04,19,00,32,7.70
2015,04,19,00,33,7.70
2015,04,19,00,34,7.70
2015,04,19,00,35,7.70
2015,04,19,00,36,7.70
2015,04,19,00,37,7.70
2015,04,19,00,38,7.70
2015,04,19,00,39,7.60
2015,04,19,00,40,7.60
2015,04,19,00,41,7.60
2015,04,19,00,42,7.50
2015,04,19,00,43,7.50
2015,04,19,00,44,7.50
2015,04,19,00,45,7.50
2015,04,19,00,46,7.40
2015,04,19,00,47,7.40
2015,04,19,00,48,7.40
2015,04,19,00,49,7.40
2015,04,19,00,50,7.40
2015,04,19,00,51,7.30
2015,04,19,00,52,7.30
2015,04,19,00,53,7.30
2015,04,19,00,54,7.30
2015,04,19,00,55,7.30
2015,04,19,00,56,7.30
2015,04,19,00,57,7.30
2015,04,19,00,58,7.20
2015,04,19,00,59,7.20
2015,04,19,01,00,7.20
2015,04,19,01,01,7.10
2015,04,19,01,02,7.10
2015,04,19,01,03,7.10
2015,04,19,01,04,7.00
2015,04,19,01,05,7.00
2015,04,19,01,06,7.00
2015,04,19,01,07,6.90
2015,04,19,01,08,6.90
2015,04,19,01,09,6.90
2015,04,19,01,10,6.90
2015,04,19,01,11,6.90
2015,04,19,01,12,6.90
2015,04,19,01,13,6.90
2015,04,19,01,14,6.90
2015,04,19,01,15,6.90
2015,04,19,01,16,6.90
2015,04,19,01,17,6.90
2015,04,19,01,18,6.90
2015,04,19,01,19,6.90
2015,04,19,01,20,6.90
2015,04,19,01,21,7.00
2015,04,19,01,22,7.00
2015,04,19,01,23,7.00
2015,04,19,01,24,7.00
2015,04,19,01,25,7.00
2015,04,19,01,26,7.00
2015,04,19,01,27,6.90
2015,04,19,01,28,6.90
2015,04,19,01,29,6.90
2015,04,19,01,30,6.90
2015,04,19,01,31,6.80
2015,04,19,01,32,6.80
2015,04,19,01,33,6.80
2015,04,19,01,34,6.80
2015,04,19,01,35,6.80
2015,04,19,01,36,6.80
2015,04,19,01,37,6.70
2015,04,19,01,38,6.70
2015,04,19,01,39,6.70
2015,04,19,01,40,6.70
2015,04,19,01,41,6.70
2015,04,19,01,42,6.70
2015,04,19,01,43,6.70
2015,04,19,01,44,6.70
2015,04,19,01,45,6.70
2015,04,19,01,46,6.70
2015,04,19,01,47,6.60
2015,04,19,01,48,6.60
2015,04,19,01,49,6.60
2015,04,19,01,50,6.60
2015,04,19,01,51,6.60
2015,04,19,01,52,6.60
2015,04,19,01,53,6.50
2015,04,19,01,54,6.40
2015,04,19,01,55,6.40
2015,04,19,01,56,6.40
2015,04,19,01,57,6.40
2015,04,19,01,58,6.40
2015,04,19,01,59,6.40
2015,04,19,02,00,6.30
2015,04,19,02,01,6.30
2015,04,19,02,02,6.30
2015,04,19,02,03,6.30
2015,04,19,02,04,6.30
2015,04,19,02,05,6.30
2015,04,19,02,06,6.30
2015,04,19,02,07,6.30
2015,04,19,02,08,6.30
2015,04,19,02,09,6.30
2015,04,19,02,10,6.30
2015,04,19,02,11,6.30
2015,04,19,02,12,6.30
2015,04,19,02,13,6.30
2015,04,19,02,14,6.30
2015,04,19,02,15,6.30
2015,04,19,02,16,6.30
2015,04,19,02,17,6.30
2015,04,19,02,18,6.30
2015,04,19,02,19,6.30
2015,04,19,02,20,6.30
2015,04,19,02,21,6.30
2015,04,19,02,22,6.30
2015,04,19,02,23,6.30
2015,04,19,02,24,6.30
2015,04,19,02,25,6.30
2015,04,19,02,26,6.30
2015,04,19,02,27,6.20
2015,04,19,02,28,6.20
2015,04,19,02,29,6.20
2015,04,19,02,30,6.20
2015,04,19,02,31,6.20
2015,04,19,02,32,6.20
2015,04,19,02,33,6.10
2015,04,19,02,34,6.10
2015,04,19,02,35,6.00
2015,04,19,02,36,6.00
2015,04,19,02,37,6.00
2015,04,19,02,38,6.00
2015,04,19,02,39,5.90
2015,04,19,02,40,5.90
2015,04,19,02,41,5.90
2015,04,19,02,42,5.80
2015,04,19,02,43,5.80
2015,04,19,02,44,5.80
2015,04,19,02,45,5.70
2015,04,19,02,46,5.70
2015,04,19,02,47,5.70
2015,04,19,02,48,5.70
2015,04,19,02,49,5.70
2015,04,19,02,50,5.70
2015,04,19,02,51,5.70
2015,04,19,02,52,5.70
2015,04,19,02,53,5.70
2015,04,19,02,54,5.60
2015,04,19,02,55,5.60
2015,04,19,02,56,5.60
2015,04,19,02,57,5.60
2015,04,19,02,58,5.70
2015,04,19,02,59,5.70
2015,04,19,03,00,5.60
2015,04,19,03,01,5.60
2015,04,19,03,02,5.60
2015,04,19,03,03,5.60
2015,04,19,03,04,5.60
2015,04,19,03,05,5.60
2015,04,19,03,06,5.50
2015,04,19,03,07,5.50
2015,04,19,03,08,5.50
2015,04,19,03,09,5.50
2015,04,19,03,10,5.50
2015,04,19,03,11,5.40
2015,04,19,03,12,5.40
2015,04,19,03,13,5.40
2015,04,19,03,14,5.40
2015,04,19,03,15,5.40
2015,04,19,03,16,5.40
2015,04,19,03,17,5.40
2015,04,19,03,18,5.30
2015,04,19,03,19,5.30
2015,04,19,03,20,5.30
2015,04,19,03,21,5.30
2015,04,19,03,22,5.30
2015,04,19,03,23,5.30
2015,04,19,03,24,5.30
2015,04,19,03,25,5.30
2015,04,19,03,26,5.30
2015,04,19,03,27,5.30
2015,04,19,03,28,5.30
2015,04,19,03,29,5.30
2015,04,19,03,30,5.30
2015,04,19,03,31,5.30
2015,04,19,03,32,5.20
2015,04,19,03,33,5.20
2015,04,19,03,34,5.20
2015,04,19,03,35,5.20
2015,04,19,03,36,5.20
2015,04,19,03,37,5.20
2015,04,19,03,38,5.20
2015,04,19,03,39,5.20
2015,04,19,03,40,5.10
2015,04,19,03,41,5.10
2015,04,19,03,42,5.10
2015,04,19,03,43,5.10
2015,04,19,03,44,5.10
2015,04,19,03,45,5.10
2015,04,19,03,46,5.10
2015,04,19,03,47,5.10
2015,04,19,03,48,5.10
2015,04,19,03,49,5.10
2015,04,19,03,50,5.10
2015,04,19,03,51,5.10
2015,04,19,03,52,5.10
2015,04,19,03,53,5.10
2015,04,19,03,54,5.10
2015,04,19,03,55,5.10
2015,04,19,03,56,5.10
2015,04,19,03,57,5.10
2015,04,19,03,58,5.10
2015,04,19,03,59,5.10
2015,04,19,04,00,5.10
2015,04,19,04,01,5.10
2015,04,19,04,02,5.10
2015,04,19,04,03,5.10
2015,04,19,04,04,5.10
2015,04,19,04,05,5.20
2015,04,19,04,06,5.10
2015,04,19,04,07,5.10
2015,04,19,04,08,5.10
2015,04,19,04,09,5.10
2015,04,19,04,10,5.00
2015,04,19,04,11,4.90
2015,04,19,04,12,4.90
2015,04,19,04,13,4.90
2015,04,19,04,14,4.90
2015,04,19,04,15,4.90
2015,04,19,04,16,4.90
2015,04,19,04,17,4.90
2015,04,19,04,18,4.80
2015,04,19,04,19,4.80
2015,04,19,04,20,4.80
2015,04,19,04,21,4.90
2015,04,19,04,22,4.90
2015,04,19,04,23,4.90
2015,04,19,04,24,4.90
2015,04,19,04,25,4.90
2015,04,19,04,26,4.90
2015,04,19,04,27,4.90
2015,04,19,04,28,4.90
2015,04,19,04,29,4.90
2015,04,19,04,30,4.90
2015,04,19,04,31,4.90
2015,04,19,04,32,4.90
2015,04,19,04,33,4.90
2015,04,19,04,34,4.80
2015,04,19,04,35,4.80
2015,04,19,04,36,4.90
2015,04,19,04,37,4.90
2015,04,19,04,38,4.80
2015,04,19,04,39,4.80
2015,04,19,04,40,4.80
2015,04,19,04,41,4.80
2015,04,19,04,42,4.80
2015,04,19,04,43,4.80
2015,04,19,04,44,4.70
2015,04,19,04,45,4.70
2015,04,19,04,46,4.70
2015,04,19,04,47,4.70
2015,04,19,04,48,4.70
2015,04,19,04,49,4.70
2015,04,19,04,50,4.70
2015,04,19,04,51,4.70
2015,04,19,04,52,4.80
2015,04,19,04,53,4.90
2015,04,19,04,54,4.90
2015,04,19,04,55,4.90
2015,04,19,04,56,4.90
2015,04,19,04,57,4.90
2015,04,19,04,58,5.00
2015,04,19,04,59,5.10
2015,04,19,05,00,5.10
2015,04,19,05,01,5.10
2015,04,19,05,02,5.10
2015,04,19,05,03,5.20
2015,04,19,05,04,5.20
2015,04,19,05,05,5.30
2015,04,19,05,06,5.30
2015,04,19,05,07,5.30
2015,04,19,05,08,5.30
2015,04,19,05,09,5.30
2015,04,19,05,10,5.40
2015,04,19,05,11,5.40
2015,04,19,05,12,5.40
2015,04,19,05,13,5.50
2015,04,19,05,14,5.50
2015,04,19,05,15,5.50
2015,04,19,05,16,5.50
2015,04,19,05,17,5.50
2015,04,19,05,18,5.60
2015,04,19,05,19,5.60
2015,04,19,05,20,5.60
2015,04,19,05,21,5.70
2015,04,19,05,22,5.70
2015,04,19,05,23,5.60
2015,04,19,05,24,5.60
2015,04,19,05,25,5.50
2015,04,19,05,26,5.50
2015,04,19,05,27,5.40
2015,04,19,05,28,5.40
2015,04,19,05,29,5.30
2015,04,19,05,30,5.30
2015,04,19,05,31,5.30
2015,04,19,05,32,5.30
2015,04,19,05,33,5.20
2015,04,19,05,34,5.20
2015,04,19,05,35,5.10
2015,04,19,05,36,5.10
2015,04,19,05,37,5.10
2015,04,19,05,38,5.10
2015,04,19,05,39,5.10
2015,04,19,05,40,5.00
2015,04,19,05,41,4.90
2015,04,19,05,42,4.90
2015,04,19,05,43,4.90
2015,04,19,05,44,4.90
2015,04,19,05,45,4.90
2015,04,19,05,46,4.80
2015,04,19,05,47,4.80
2015,04,19,05,48,4.80
2015,04,19,05,49,4.80
2015,04,19,05,50,4.80
2015,04,19,05,51,4.80
2015,04,19,05,52,4.80
2015,04,19,05,53,4.90
2015,04,19,05,54,4.90
2015,04,19,05,55,4.90
2015,04,19,05,56,4.90
2015,04,19,05,57,4.90
2015,04,19,05,58,4.90
2015,04,19,05,59,4.90
2015,04,19,06,00,4.90
2015,04,19,06,01,4.90
2015,04,19,06,02,4.90
2015,04,19,06,03,5.00
2015,04,19,06,04,5.10
2015,04,19,06,05,5.10
2015,04,19,06,06,5.10
2015,04,19,06,07,5.00
2015,04,19,06,08,4.90
2015,04,19,06,09,4.90
2015,04,19,06,10,4.90
2015,04,19,06,11,4.90
2015,04,19,06,12,4.90
2015,04,19,06,13,4.80
2015,04,19,06,14,4.80
2015,04,19,06,15,4.80
2015,04,19,06,16,4.80
2015,04,19,06,17,4.80
2015,04,19,06,18,4.80
2015,04,19,06,19,4.80
2015,04,19,06,20,4.80
2015,04,19,06,21,4.80
2015,04,19,06,22,4.80
2015,04,19,06,23,4.80
2015,04,19,06,24,4.90
2015,04,19,06,25,4.90
2015,04,19,06,26,4.90
2015,04,19,06,27,4.90
2015,04,19,06,28,5.10
2015,04,19,06,29,5.10
2015,04,19,06,30,4.90
2015,04,19,06,31,4.90
2015,04,19,06,32,4.90
2015,04,19,06,33,4.90
2015,04,19,06,34,4.90
2015,04,19,06,35,4.90
2015,04,19,06,36,4.90
2015,04,19,06,37,4.90
2015,04,19,06,38,4.80
2015,04,19,06,39,4.80
2015,04,19,06,40,4.80
2015,04,19,06,41,4.80
2015,04,19,06,42,4.80
2015,04,19,06,43,4.80
2015,04,19,06,44,4.80
2015,04,19,06,45,4.90
2015,04,19,06,46,4.90
2015,04,19,06,47,4.90
2015,04,19,06,48,4.90
2015,04,19,06,49,4.90
2015,04,19,06,50,5.10
2015,04,19,06,51,5.10
2015,04,19,06,52,5.10
2015,04,19,06,53,5.10
2015,04,19,06,54,5.20
2015,04,19,06,55,5.20
2015,04,19,06,56,5.20
2015,04,19,06,57,5.30
2015,04,19,06,58,5.30
2015,04,19,06,59,5.30
2015,04,19,07,00,5.30
2015,04,19,07,01,5.30
2015,04,19,07,02,5.40
2015,04,19,07,03,5.50
2015,04,19,07,04,5.50
2015,04,19,07,05,5.60
2015,04,19,07,06,5.60
2015,04,19,07,07,5.70
2015,04,19,07,08,5.70
2015,04,19,07,09,5.70
2015,04,19,07,10,5.80
2015,04,19,07,11,5.80
2015,04,19,07,12,5.90
2015,04,19,07,13,5.90
2015,04,19,07,14,6.00
2015,04,19,07,15,6.00
2015,04,19,07,16,6.10
2015,04,19,07,17,6.10
2015,04,19,07,18,6.20
2015,04,19,07,19,6.30
2015,04,19,07,20,6.40
2015,04,19,07,21,6.40
2015,04,19,07,22,6.60
2015,04,19,07,23,6.70
2015,04,19,07,24,6.70
2015,04,19,07,25,6.80
2015,04,19,07,26,6.90
2015,04,19,07,27,6.90
2015,04,19,07,28,6.90
2015,04,19,07,29,7.00
2015,04,19,07,30,7.00
2015,04,19,07,31,7.10
2015,04,19,07,32,7.10
2015,04,19,07,33,7.00
2015,04,19,07,34,7.10
2015,04,19,07,35,7.10
2015,04,19,07,36,7.20
2015,04,19,07,37,7.30
2015,04,19,07,38,7.30
2015,04,19,07,39,7.30
2015,04,19,07,40,7.40
2015,04,19,07,41,7.50
2015,04,19,07,42,7.60
2015,04,19,07,43,7.60
2015,04,19,07,44,7.70
2015,04,19,07,45,7.80
2015,04,19,07,46,7.80
2015,04,19,07,47,7.90
2015,04,19,07,48,7.90
2015,04,19,07,49,8.00
2015,04,19,07,50,8.10
2015,04,19,07,51,8.20
2015,04,19,07,52,8.20
2015,04,19,07,53,8.30
2015,04,19,07,54,8.30
2015,04,19,07,55,8.40
2015,04,19,07,56,8.50
2015,04,19,07,57,8.50
2015,04,19,07,58,8.60
2015,04,19,07,59,8.70
2015,04,19,08,00,8.70
2015,04,19,08,01,8.70
2015,04,19,08,02,8.70
2015,04,19,08,03,8.80
2015,04,19,08,04,8.80
2015,04,19,08,05,8.80
2015,04,19,08,06,8.90
2015,04,19,08,07,8.90
2015,04,19,08,08,9.00
2015,04,19,08,09,9.00
2015,04,19,08,10,9.10
2015,04,19,08,11,9.20
2015,04,19,08,12,9.20
2015,04,19,08,13,9.20
2015,04,19,08,14,9.30
2015,04,19,08,15,9.30
2015,04,19,08,16,9.30
2015,04,19,08,17,9.30
2015,04,19,08,18,9.30
2015,04,19,08,19,9.40
2015,04,19,08,20,9.40
2015,04,19,08,21,9.40
2015,04,19,08,22,9.40
2015,04,19,08,23,9.50
2015,04,19,08,24,9.50
2015,04,19,08,25,9.60
2015,04,19,08,26,9.60
2015,04,19,08,27,9.70
2015,04,19,08,28,9.70
2015,04,19,08,29,9.70
2015,04,19,08,30,9.70
2015,04,19,08,31,9.70
2015,04,19,08,32,9.70
2015,04,19,08,33,9.80
2015,04,19,08,34,9.80
2015,04,19,08,35,9.90
2015,04,19,08,36,9.90
2015,04,19,08,37,9.90
2015,04,19,08,38,10.00
2015,04,19,08,39,10.10
2015,04,19,08,40,10.10
2015,04,19,08,41,10.10
2015,04,19,08,42,10.20
2015,04,19,08,43,10.20
2015,04,19,08,44,10.20
2015,04,19,08,45,10.30
2015,04,19,08,46,10.40
2015,04,19,08,47,10.50
2015,04,19,08,48,10.60
2015,04,19,08,49,10.70
2015,04,19,08,50,10.70
2015,04,19,08,51,10.70
2015,04,19,08,52,10.80
2015,04,19,08,53,10.80
2015,04,19,08,54,10.90
2015,04,19,08,55,10.90
2015,04,19,08,56,11.00
2015,04,19,08,57,11.10
2015,04,19,08,58,11.10
2015,04,19,08,59,11.10
2015,04,19,09,00,11.10
2015,04,19,09,01,11.10
2015,04,19,09,02,11.10
2015,04,19,09,03,11.20
2015,04,19,09,04,11.20
2015,04,19,09,05,11.20
2015,04,19,09,06,11.20
2015,04,19,09,07,11.30
2015,04,19,09,08,11.30
2015,04,19,09,09,11.30
2015,04,19,09,10,11.30
2015,04,19,09,11,11.40
2015,04,19,09,12,11.40
2015,04,19,09,13,11.40
2015,04,19,09,14,11.40
2015,04,19,09,15,11.40
2015,04,19,09,16,11.40
2015,04,19,09,17,11.40
2015,04,19,09,18,11.40
2015,04,19,09,19,11.30
2015,04,19,09,20,11.30
2015,04,19,09,21,11.30
2015,04,19,09,22,11.30
2015,04,19,09,23,11.30
2015,04,19,09,24,11.30
2015,04,19,09,25,11.40
2015,04,19,09,26,11.40
2015,04,19,09,27,11.40
2015,04,19,09,28,11.60
2015,04,19,09,29,11.60
2015,04,19,09,30,11.60
2015,04,19,09,31,11.70
2015,04,19,09,32,11.80
2015,04,19,09,33,11.80
2015,04,19,09,34,11.90
2015,04,19,09,35,12.00
2015,04,19,09,36,12.10
2015,04,19,09,37,12.20
2015,04,19,09,38,12.30
2015,04,19,09,39,12.30
2015,04,19,09,40,12.30
2015,04,19,09,41,12.40
2015,04,19,09,42,12.50
2015,04,19,09,43,12.50
2015,04,19,09,44,12.60
2015,04,19,09,45,12.70
2015,04,19,09,46,12.70
2015,04,19,09,47,12.70
2015,04,19,09,48,12.70
2015,04,19,09,49,12.70
2015,04,19,09,50,12.70
2015,04,19,09,51,12.70
2015,04,19,09,52,12.80
2015,04,19,09,53,12.80
2015,04,19,09,54,12.80
2015,04,19,09,55,12.80
2015,04,19,09,56,12.80
2015,04,19,09,57,12.80
2015,04,19,09,58,12.80
2015,04,19,09,59,12.80
2015,04,19,10,00,12.80
2015,04,19,10,01,12.80
2015,04,19,10,02,12.80
2015,04,19,10,03,12.80
2015,04,19,10,04,12.90
2015,04,19,10,05,13.00
2015,04,19,10,06,13.00
2015,04,19,10,07,13.10
2015,04,19,10,08,13.10
2015,04,19,10,09,13.20
2015,04,19,10,10,13.20
2015,04,19,10,11,13.20
2015,04,19,10,12,13.20
2015,04,19,10,13,13.20
2015,04,19,10,14,13.20
2015,04,19,10,15,13.20
2015,04,19,10,16,13.20
2015,04,19,10,17,13.20
2015,04,19,10,18,13.30
2015,04,19,10,19,13.30
2015,04,19,10,20,13.30
2015,04,19,10,21,13.30
2015,04,19,10,22,13.30
2015,04,19,10,23,13.30
2015,04,19,10,24,13.30
2015,04,19,10,25,13.30
2015,04,19,10,26,13.30
2015,04,19,10,27,13.30
2015,04,19,10,28,13.20
2015,04,19,10,29,13.20
2015,04,19,10,30,13.20
2015,04,19,10,31,13.20
2015,04,19,10,32,13.10
2015,04,19,10,33,13.20
2015,04,19,10,34,13.20
2015,04,19,10,35,13.20
2015,04,19,10,36,13.30
2015,04,19,10,37,13.30
2015,04,19,10,38,13.30
2015,04,19,10,39,13.30
2015,04,19,10,40,13.30
2015,04,19,10,41,13.30
2015,04,19,10,42,13.40
2015,04,19,10,43,13.40
2015,04,19,10,44,13.40
2015,04,19,10,45,13.50
2015,04,19,10,46,13.50
2015,04,19,10,47,13.50
2015,04,19,10,48,13.50
2015,04,19,10,49,13.50
2015,04,19,10,50,13.60
2015,04,19,10,51,13.60
2015,04,19,10,52,13.60
2015,04,19,10,53,13.60
2015,04,19,10,54,13.60
2015,04,19,10,55,13.60
2015,04,19,10,56,13.70
2015,04,19,10,57,13.70
2015,04,19,10,58,13.70
2015,04,19,10,59,13.70
2015,04,19,11,00,13.70
2015,04,19,11,01,13.70
2015,04,19,11,02,13.70
2015,04,19,11,03,13.70
2015,04,19,11,04,13.70
2015,04,19,11,05,13.70
2015,04,19,11,06,13.70
2015,04,19,11,07,13.70
2015,04,19,11,08,13.70
2015,04,19,11,09,13.70
2015,04,19,11,10,13.70
2015,04,19,11,11,13.70
2015,04,19,11,12,13.70
2015,04,19,11,13,13.70
2015,04,19,11,14,13.70
2015,04,19,11,15,13.70
2015,04,19,11,16,13.70
2015,04,19,11,17,13.80
2015,04,19,11,18,13.80
2015,04,19,11,19,13.90
2015,04,19,11,20,13.90
2015,04,19,11,21,13.90
2015,04,19,11,22,13.90
2015,04,19,11,23,13.90
2015,04,19,11,24,14.00
2015,04,19,11,25,14.00
2015,04,19,11,26,14.10
2015,04,19,11,27,14.20
2015,04,19,11,28,14.20
2015,04,19,11,29,14.30
2015,04,19,11,30,14.30
2015,04,19,11,31,14.40
2015,04,19,11,32,14.50
2015,04,19,11,33,14.60
2015,04,19,11,34,14.60
2015,04,19,11,35,14.70
2015,04,19,11,36,14.70
2015,04,19,11,37,14.70
2015,04,19,11,38,14.70
2015,04,19,11,39,14.70
2015,04,19,11,40,14.70
2015,04,19,11,41,14.70
2015,04,19,11,42,14.70
2015,04,19,11,43,14.70
2015,04,19,11,44,14.80
2015,04,19,11,45,14.80
2015,04,19,11,46,14.80
2015,04,19,11,47,14.80
2015,04,19,11,48,14.80
2015,04,19,11,49,14.90
2015,04,19,11,50,14.90
2015,04,19,11,51,15.00
2015,04,19,11,52,15.00
2015,04,19,11,53,15.00
2015,04,19,11,54,15.00
2015,04,19,11,55,15.00
2015,04,19,11,56,15.10
2015,04,19,11,57,15.20
2015,04,19,11,58,15.20
2015,04,19,11,59,15.20
2015,04,19,12,00,15.20
2015,04,19,12,01,15.20
2015,04,19,12,02,15.20
2015,04,19,12,03,15.30
2015,04,19,12,04,15.30
2015,04,19,12,05,15.30
2015,04,19,12,06,15.30
2015,04,19,12,07,15.30
2015,04,19,12,08,15.30
2015,04,19,12,09,15.40
2015,04,19,12,10,15.40
2015,04,19,12,11,15.40
2015,04,19,12,12,15.40
2015,04,19,12,13,15.30
2015,04,19,12,14,15.30
2015,04,19,12,15,15.30
2015,04,19,12,16,15.20
2015,04,19,12,17,15.30
2015,04,19,12,18,15.30
2015,04,19,12,19,15.20
2015,04,19,12,20,15.20
2015,04,19,12,21,15.20
2015,04,19,12,22,15.20
2015,04,19,12,23,15.20
2015,04,19,12,24,15.20
2015,04,19,12,25,15.20
2015,04,19,12,26,15.20
2015,04,19,12,27,15.30
2015,04,19,12,28,15.30
2015,04,19,12,29,15.30
2015,04,19,12,30,15.30
2015,04,19,12,31,15.30
2015,04,19,12,32,15.30
2015,04,19,12,33,15.40
2015,04,19,12,34,15.40
2015,04,19,12,35,15.40
2015,04,19,12,36,15.50
2015,04,19,12,37,15.60
2015,04,19,12,38,15.70
2015,04,19,12,39,15.80
2015,04,19,12,40,15.80
2015,04,19,12,41,15.80
2015,04,19,12,42,15.80
2015,04,19,12,43,15.90
2015,04,19,12,44,15.90
2015,04,19,12,45,16.10
2015,04,19,12,46,16.10
2015,04,19,12,47,16.10
2015,04,19,12,48,16.10
2015,04,19,12,49,16.20
2015,04,19,12,50,16.30
2015,04,19,12,51,16.40
2015,04,19,12,52,16.40
2015,04,19,12,53,16.40
2015,04,19,12,54,16.40
2015,04,19,12,55,16.30
2015,04,19,12,56,16.30
2015,04,19,12,57,16.20
2015,04,19,12,58,16.20
2015,04,19,12,59,16.20
2015,04,19,13,00,16.30
2015,04,19,13,01,16.30
2015,04,19,13,02,16.30
2015,04,19,13,03,16.30
2015,04,19,13,04,16.20
2015,04,19,13,05,16.30
2015,04,19,13,06,16.30
2015,04,19,13,07,16.30
2015,04,19,13,08,16.30
2015,04,19,13,09,16.40
2015,04,19,13,10,16.50
2015,04,19,13,11,16.60
2015,04,19,13,12,16.70
2015,04,19,13,13,16.70
2015,04,19,13,14,16.70
2015,04,19,13,15,16.80
2015,04,19,13,16,16.80
2015,04,19,13,17,16.90
2015,04,19,13,18,16.90
2015,04,19,13,19,16.90
2015,04,19,13,20,16.90
2015,04,19,13,21,16.90
2015,04,19,13,22,16.90
2015,04,19,13,23,16.90
2015,04,19,13,24,16.80
2015,04,19,13,25,16.70
2015,04,19,13,26,16.70
2015,04,19,13,27,16.70
2015,04,19,13,28,16.70
2015,04,19,13,29,16.70
2015,04,19,13,30,16.80
2015,04,19,13,31,16.90
2015,04,19,13,32,17.00
2015,04,19,13,33,17.00
2015,04,19,13,34,17.00
2015,04,19,13,35,16.90
2015,04,19,13,36,16.80
2015,04,19,13,37,16.80
2015,04,19,13,38,16.80
2015,04,19,13,39,16.80
2015,04,19,13,40,16.90
2015,04,19,13,41,17.00
2015,04,19,13,42,17.10
2015,04,19,13,43,17.10
2015,04,19,13,44,17.20
2015,04,19,13,45,17.20
2015,04,19,13,46,17.10
2015,04,19,13,47,17.00
2015,04,19,13,48,17.00
2015,04,19,13,49,16.90
2015,04,19,13,50,16.90
2015,04,19,13,51,16.90
2015,04,19,13,52,16.80
2015,04,19,13,53,16.80
2015,04,19,13,54,16.90
2015,04,19,13,55,17.00
2015,04,19,13,56,17.10
2015,04,19,13,57,17.10
2015,04,19,13,58,17.20
2015,04,19,13,59,17.30
2015,04,19,14,00,17.30
2015,04,19,14,01,17.30
2015,04,19,14,02,17.30
2015,04,19,14,03,17.30
2015,04,19,14,04,17.30
2015,04,19,14,05,17.30
2015,04,19,14,06,17.40
2015,04,19,14,07,17.40
2015,04,19,14,08,17.50
2015,04,19,14,09,17.60
2015,04,19,14,10,17.70
2015,04,19,14,11,17.80
2015,04,19,14,12,17.90
2015,04,19,14,13,17.90
2015,04,19,14,14,17.80
2015,04,19,14,15,17.70
2015,04,19,14,16,17.60
2015,04,19,14,17,17.60
2015,04,19,14,18,17.60
2015,04,19,14,19,17.60
2015,04,19,14,20,17.60
2015,04,19,14,21,17.60
2015,04,19,14,22,17.60
2015,04,19,14,23,17.70
2015,04,19,14,24,17.70
2015,04,19,14,25,17.60
2015,04,19,14,26,17.60
2015,04,19,14,27,17.60
2015,04,19,14,28,17.60
2015,04,19,14,29,17.60
2015,04,19,14,30,17.60
2015,04,19,14,31,17.60
2015,04,19,14,32,17.60
2015,04,19,14,33,17.60
2015,04,19,14,34,17.70
2015,04,19,14,35,17.70
2015,04,19,14,36,17.70
2015,04,19,14,37,17.70
2015,04,19,14,38,17.70
2015,04,19,14,39,17.70
2015,04,19,14,40,17.80
2015,04,19,14,41,17.80
2015,04,19,14,42,17.80
2015,04,19,14,43,17.80
2015,04,19,14,44,17.90
2015,04,19,14,45,17.90
2015,04,19,14,46,17.90
2015,04,19,14,47,17.80
2015,04,19,14,48,17.80
2015,04,19,14,49,17.80
2015,04,19,14,50,17.70
2015,04,19,14,51,17.70
2015,04,19,14,52,17.60
2015,04,19,14,53,17.60
2015,04,19,14,54,17.60
2015,04,19,14,55,17.70
2015,04,19,14,56,17.70
2015,04,19,14,57,17.80
2015,04,19,14,58,17.80
2015,04,19,14,59,17.80
2015,04,19,15,00,17.90
2015,04,19,15,01,18.00
2015,04,19,15,02,18.10
2015,04,19,15,03,18.20
2015,04,19,15,04,18.20
2015,04,19,15,05,18.20
2015,04,19,15,06,18.20
2015,04,19,15,07,18.20
2015,04,19,15,08,18.10
2015,04,19,15,09,18.10
2015,04,19,15,10,17.90
2015,04,19,15,11,17.90
2015,04,19,15,12,17.90
2015,04,19,15,13,17.90
2015,04,19,15,14,17.90
2015,04,19,15,15,17.90
2015,04,19,15,16,17.80
2015,04,19,15,17,17.80
2015,04,19,15,18,17.80
2015,04,19,15,19,17.80
2015,04,19,15,20,17.80
2015,04,19,15,21,17.80
2015,04,19,15,22,17.80
2015,04,19,15,23,17.90
2015,04,19,15,24,17.90
2015,04,19,15,25,17.90
2015,04,19,15,26,17.90
2015,04,19,15,27,18.00
2015,04,19,15,28,18.10
2015,04,19,15,29,18.10
2015,04,19,15,30,18.10
2015,04,19,15,31,18.10
2015,04,19,15,32,18.10
2015,04,19,15,33,18.10
2015,04,19,15,34,18.10
2015,04,19,15,35,18.10
2015,04,19,15,36,18.10
2015,04,19,15,37,18.20
2015,04,19,15,38,18.20
2015,04,19,15,39,18.30
2015,04,19,15,40,18.40
2015,04,19,15,41,18.40
2015,04,19,15,42,18.50
2015,04,19,15,43,18.50
2015,04,19,15,44,18.60
2015,04,19,15,45,18.60
2015,04,19,15,46,18.70
2015,04,19,15,47,18.70
2015,04,19,15,48,18.80
2015,04,19,15,49,18.90
2015,04,19,15,50,18.90
2015,04,19,15,51,19.00
2015,04,19,15,52,19.10
2015,04,19,15,53,19.10
2015,04,19,15,54,19.10
2015,04,19,15,55,19.10
2015,04,19,15,56,19.10
2015,04,19,15,57,19.10
2015,04,19,15,58,19.10
2015,04,19,15,59,19.20
2015,04,19,16,00,19.20
2015,04,19,16,01,19.20
2015,04,19,16,02,19.20
2015,04,19,16,03,19.20
2015,04,19,16,04,19.10
2015,04,19,16,05,19.10
2015,04,19,16,06,19.10
2015,04,19,16,07,19.10
2015,04,19,16,08,18.90
2015,04,19,16,09,18.90
2015,04,19,16,10,18.90
2015,04,19,16,11,18.80
2015,04,19,16,12,18.70
2015,04,19,16,13,18.70
2015,04,19,16,14,18.60
2015,04,19,16,15,18.60
2015,04,19,16,16,18.50
2015,04,19,16,17,18.50
2015,04,19,16,18,18.50
2015,04,19,16,19,18.50
2015,04,19,16,20,18.50
2015,04,19,16,21,18.50
2015,04,19,16,22,18.60
2015,04,19,16,23,18.70
2015,04,19,16,24,18.70
2015,04,19,16,25,18.60
2015,04,19,16,26,18.60
2015,04,19,16,27,18.60
2015,04,19,16,28,18.60
2015,04,19,16,29,18.60
2015,04,19,16,30,18.60
2015,04,19,16,31,18.50
2015,04,19,16,32,18.50
2015,04,19,16,33,18.50
2015,04,19,16,34,18.50
2015,04,19,16,35,18.50
2015,04,19,16,36,18.50
2015,04,19,16,37,18.50
2015,04,19,16,38,18.50
2015,04,19,16,39,18.40
2015,04,19,16,40,18.40
2015,04,19,16,41,18.40
2015,04,19,16,42,18.40
2015,04,19,16,43,18.40
2015,04,19,16,44,18.30
2015,04,19,16,45,18.30
2015,04,19,16,46,18.30
2015,04,19,16,47,18.30
2015,04,19,16,48,18.20
2015,04,19,16,49,18.20
2015,04,19,16,50,18.20
2015,04,19,16,51,18.20
2015,04,19,16,52,18.30
2015,04,19,16,53,18.40
2015,04,19,16,54,18.40
2015,04,19,16,55,18.40
2015,04,19,16,56,18.40
2015,04,19,16,57,18.40
2015,04,19,16,58,18.40
2015,04,19,16,59,18.50
2015,04,19,17,00,18.50
2015,04,19,17,01,18.50
2015,04,19,17,02,18.60
2015,04,19,17,03,18.60
2015,04,19,17,04,18.60
2015,04,19,17,05,18.70
2015,04,19,17,06,18.70
2015,04,19,17,07,18.80
2015,04,19,17,08,18.90
2015,04,19,17,09,18.90
2015,04,19,17,10,18.90
2015,04,19,17,11,19.00
2015,04,19,17,12,19.10
2015,04,19,17,13,19.10
2015,04,19,17,14,19.10
2015,04,19,17,15,19.10
2015,04,19,17,16,19.10
2015,04,19,17,17,19.10
2015,04,19,17,18,18.90
2015,04,19,17,19,18.90
2015,04,19,17,20,18.90
2015,04,19,17,21,18.90
2015,04,19,17,22,18.90
2015,04,19,17,23,18.90
2015,04,19,17,24,18.90
2015,04,19,17,25,18.80
2015,04,19,17,26,18.80
2015,04,19,17,27,18.70
2015,04,19,17,28,18.70
2015,04,19,17,29,18.70
2015,04,19,17,30,18.60
2015,04,19,17,31,18.60
2015,04,19,17,32,18.60
2015,04,19,17,33,18.60
2015,04,19,17,34,18.70
2015,04,19,17,35,18.70
2015,04,19,17,36,18.70
2015,04,19,17,37,18.70
2015,04,19,17,38,18.70
2015,04,19,17,39,18.70
2015,04,19,17,40,18.70
2015,04,19,17,41,18.70